AW673 Weather Reports


time (UTC)temp
C
wind
direction
speed
KPH
gust
KPH
rain 1hr
cm
rain 24hr
cm
rain mn
cm
humidity
%
barometer
mb
20260509043031 21 129 6.4 9.7 0.00 0.00 0.00 61 1023.1
20260509042050 20 130 8.0 9.7 0.00 0.00 0.00 62 1023.2
20260509041028 20 128 6.4 8.0 0.00 0.00 0.00 62 1023.2
20260509040027 20 131 1.6 4.8 0.00 0.00 0.00 64 1023.2
20260509035046 20 102 8.0 11.3 0.00 0.00 0.00 62 1023.3
20260509034025 20 76 4.8 8.0 0.00 0.00 0.00 61 1023.1
20260509033023 21 114 6.4 14.5 0.00 0.00 0.00 60 1023.1
20260509032103 21 116 11.3 14.5 0.00 0.00 0.00 57 1023.2
20260509031021 21 173 3.2 8.0 0.00 0.00 0.00 58 1023.3
20260509030020 21 141 8.0 12.9 0.00 0.00 0.00 55 1023.3
20260509025019 21 114 4.8 8.0 0.00 0.00 0.00 55 1023.3
20260509024017 21 239 4.8 9.7 0.00 0.00 0.00 54 1023.5
20260509023035 21 215 6.4 11.3 0.00 0.00 0.00 54 1023.6
20260509022045 20 112 3.2 4.8 0.00 0.00 0.00 55 1023.7
20260509021044 20 201 4.8 6.4 0.00 0.00 0.00 56 1023.9
20260509020042 20 137 4.8 9.7 0.00 0.00 0.00 55 1023.9
20260509015041 21 127 4.8 6.4 0.00 0.00 0.00 53 1024.1
20260509014039 20 230 6.4 8.0 0.00 0.00 0.00 54 1024.2
20260509013038 20 231 6.4 6.4 0.00 0.00 0.00 54 1024.3
20260509012036 20 248 6.4 11.3 0.00 0.00 0.00 54 1024.5
20260509011035 20 182 1.6 4.8 0.00 0.00 0.00 56 1024.5
20260509010155 20 214 8.0 9.7 0.00 0.00 0.00 55 1024.6
20260509005033 20 204 4.8 9.7 0.00 0.00 0.00 55 1024.6
20260509004032 19 158 12.9 19.3 0.00 0.00 0.00 57 1024.8
20260509003030 20 241 3.2 9.7 0.00 0.00 0.00 57 1024.7
20260509002110 19 167 8.0 9.7 0.00 0.00 0.00 59 1024.7
20260509001028 18 190 8.0 11.3 0.00 0.00 0.00 61 1024.8
20260509000026 18 157 9.7 17.7 0.00 0.00 0.00 62 1024.7
20260508235045 18 187 11.3 20.9 0.00 0.00 0.00 62 1025.0
20260508234024 17 202 4.8 8.0 0.00 0.00 0.00 63 1024.9
20260508233022 17 205 4.8 8.0 0.00 0.00 0.00 64 1025.0
20260508232021 17 177 6.4 8.0 0.00 0.00 0.00 66 1025.0
20260508231040 17 160 9.7 14.5 0.00 0.00 0.00 66 1024.9
20260508230018 16 161 6.4 9.7 0.00 0.00 0.00 67 1025.0
20260508225037 15 163 4.8 8.0 0.00 0.00 0.00 70 1025.0
20260508224016 15 179 6.4 9.7 0.00 0.00 0.00 70 1025.1
20260508223045 14 147 4.8 6.4 0.00 0.00 0.00 72 1025.0
20260508222044 14 211 4.8 8.0 0.00 0.00 0.00 72 1025.0
20260508221043 13 202 3.2 4.8 0.00 0.00 0.00 72 1024.9
20260508220041 13 176 3.2 6.4 0.00 0.00 0.00 72 1024.8
20260508215041 13 181 4.8 8.0 0.00 0.00 0.00 72 1024.7
20260508214039 13 130 4.8 6.4 0.00 0.00 0.00 72 1024.6
20260508213118 12 183 6.4 6.4 0.00 0.00 0.00 72 1024.3
20260508212036 12 167 4.8 6.4 0.00 0.00 0.00 72 1024.2
20260508211035 12 208 4.8 9.7 0.00 0.00 0.00 73 1024.1
20260508210034 11 171 6.4 8.0 0.00 0.00 0.00 75 1024.1
20260508205033 10 170 3.2 6.4 0.00 0.00 0.00 80 1023.9
20260508204031 11 166 4.8 6.4 0.00 0.00 0.00 78 1023.7
20260508203029 11 210 3.2 4.8 0.00 0.00 0.00 75 1023.4
20260508202028 11 139 1.6 4.8 0.00 0.00 0.00 74 1023.4
20260508201028 11 174 4.8 6.4 0.00 0.00 0.00 74 1023.5
20260508200026 12 182 3.2 6.4 0.00 0.00 0.00 73 1023.2
20260508195046 12 186 4.8 6.4 0.00 0.00 0.00 72 1023.1
20260508194044 12 178 4.8 6.4 0.00 0.00 0.00 72 1022.6
20260508193024 12 186 4.8 8.0 0.00 0.00 0.00 72 1022.5
20260508192021 12 214 6.4 8.0 0.00 0.00 0.00 71 1022.6
20260508191020 12 141 4.8 6.4 0.00 0.00 0.00 73 1022.6
20260508190039 12 161 4.8 6.4 0.00 0.00 0.00 72 1022.5
20260508185017 12 174 3.2 6.4 0.00 0.00 0.00 72 1022.4
20260508184018 12 210 4.8 9.7 0.00 0.00 0.00 73 1022.4
20260508183045 12 173 3.2 8.0 0.00 0.00 0.00 72 1022.5
20260508182105 12 237 4.8 4.8 0.00 0.00 0.00 72 1022.4
20260508181042 12 164 4.8 6.4 0.00 0.00 0.00 72 1022.4
20260508180042 12 180 4.8 6.4 0.00 0.00 0.00 71 1022.2
20260508175039 12 183 4.8 6.4 0.00 0.00 0.00 72 1022.5
20260508174038 12 155 4.8 6.4 0.00 0.00 0.00 73 1022.3
20260508173057 12 208 6.4 8.0 0.00 0.00 0.00 72 1022.1
20260508172036 12 211 6.4 8.0 0.00 0.00 0.00 72 1022.3
20260508171055 11 198 8.0 9.7 0.00 0.00 0.00 74 1022.3
20260508170033 12 151 4.8 6.4 0.00 0.00 0.00 73 1022.2
20260508165032 12 181 3.2 6.4 0.00 0.00 0.00 72 1022.3
20260508164030 11 157 6.4 11.3 0.00 0.00 0.00 73 1022.1
20260508163029 11 175 3.2 6.4 0.00 0.00 0.00 74 1022.2
20260508162048 11 216 6.4 8.0 0.00 0.00 0.00 77 1022.1
20260508161027 10 126 4.8 6.4 0.00 0.00 0.00 79 1022.3
20260508160025 10 208 8.0 9.7 0.00 0.00 0.00 79 1022.1
20260508155024 9 220 4.8 6.4 0.00 0.00 0.00 84 1022.3
20260508154023 10 148 1.6 3.2 0.00 0.00 0.00 82 1022.1
20260508153022 10 108 3.2 4.8 0.00 0.00 0.00 81 1022.2
20260508152021 10 141 3.2 4.8 0.00 0.00 0.00 79 1022.0
20260508151019 10 198 3.2 3.2 0.00 0.00 0.00 80 1022.1
20260508150019 10 173 3.2 3.2 0.00 0.00 0.00 79 1022.1
20260508145017 10 157 1.6 4.8 0.00 0.00 0.00 79 1022.0
20260508144046 10 146 3.2 6.4 0.00 0.00 0.00 78 1022.0
20260508143044 10 139 4.8 8.0 0.00 0.00 0.00 78 1021.9
20260508142044 10 140 3.2 6.4 0.00 0.00 0.00 78 1021.9
20260508141042 11 152 4.8 6.4 0.00 0.00 0.00 77 1022.1
20260508140040 11 134 3.2 4.8 0.00 0.00 0.00 74 1022.2
20260508135039 11 154 3.2 6.4 0.00 0.00 0.00 73 1021.6
20260508134038 12 157 4.8 6.4 0.00 0.00 0.00 73 1021.7
20260508133036 12 154 4.8 6.4 0.00 0.00 0.00 72 1021.6
20260508132036 11 135 4.8 6.4 0.00 0.00 0.00 77 1021.7
20260508131034 12 141 3.2 3.2 0.00 0.00 0.00 73 1021.6
20260508130033 12 133 4.8 6.4 0.00 0.00 0.00 71 1021.7
20260508125032 12 144 6.4 8.0 0.00 0.00 0.00 72 1021.7
20260508124051 12 141 3.2 4.8 0.00 0.00 0.00 71 1021.8
20260508123029 12 148 4.8 8.0 0.00 0.00 0.00 71 1021.7
20260508122027 12 146 4.8 6.4 0.00 0.00 0.00 73 1021.8
20260508121026 12 136 4.8 6.4 0.00 0.00 0.00 73 1021.8
20260508120024 11 136 4.8 6.4 0.00 0.00 0.00 76 1021.9
20260508115023 11 145 4.8 6.4 0.00 0.00 0.00 77 1021.9
20260508114022 12 158 3.2 6.4 0.00 0.00 0.00 73 1021.6
20260508113042 11 149 4.8 6.4 0.00 0.00 0.00 79 1021.7
20260508112040 11 114 3.2 3.2 0.00 0.00 0.00 80 1021.5
20260508111019 12 126 4.8 4.8 0.00 0.00 0.00 79 1021.4
20260508110037 11 149 3.2 4.8 0.00 0.00 0.00 80 1021.5
20260508105037 11 132 4.8 6.4 0.00 0.00 0.00 81 1021.3
20260508104045 12 133 3.2 6.4 0.00 0.00 0.00 79 1021.3
20260508103104 12 124 4.8 4.8 0.00 0.00 0.00 78 1020.9
20260508102042 12 102 1.6 3.2 0.00 0.00 0.00 76 1020.8
20260508101041 12 127 1.6 3.2 0.00 0.00 0.00 76 1020.8
20260508100040 12 96 3.2 3.2 0.00 0.00 0.00 76 1020.7
20260508095058 13 123 3.2 6.4 0.00 0.00 0.00 75 1020.6
20260508094037 13 113 3.2 3.2 0.00 0.00 0.00 73 1020.4
20260508093056 12 134 3.2 4.8 0.00 0.00 0.00 76 1020.3
20260508092035 13 133 4.8 6.4 0.00 0.00 0.00 75 1020.2
20260508091033 13 125 3.2 4.8 0.00 0.00 0.00 72 1020.0
20260508090053 13 104 3.2 4.8 0.00 0.00 0.00 73 1019.8
20260508085031 13 120 4.8 6.4 0.00 0.00 0.00 72 1019.9
20260508084031 13 122 4.8 6.4 0.00 0.00 0.00 69 1019.8
20260508083029 14 114 4.8 6.4 0.00 0.00 0.00 72 1019.6
20260508082027 15 118 4.8 6.4 0.00 0.00 0.00 70 1019.4
20260508081026 16 126 3.2 6.4 0.00 0.00 0.00 65 1019.2
20260508080025 17 101 3.2 4.8 0.00 0.00 0.00 57 1019.0
20260508075044 17 153 3.2 4.8 0.00 0.00 0.00 52 1018.9
20260508074022 18 155 1.6 3.2 0.00 0.00 0.00 52 1018.5
20260508073021 18 201 1.6 4.8 0.00 0.00 0.00 53 1018.4
20260508072020 18 203 3.2 4.8 0.00 0.00 0.00 48 1018.0
20260508071019 18 170 4.8 6.4 0.00 0.00 0.00 48 1018.0
20260508070018 19 130 6.4 8.0 0.00 0.00 0.00 46 1017.6
20260508065017 19 155 4.8 6.4 0.00 0.00 0.00 45 1017.5
20260508064044 20 141 3.2 4.8 0.00 0.00 0.00 44 1017.3
20260508063043 20 92 3.2 6.4 0.00 0.00 0.00 43 1017.2
20260508062041 20 169 4.8 6.4 0.00 0.00 0.00 42 1017.1
20260508061121 21 183 3.2 3.2 0.00 0.00 0.00 41 1016.9
20260508060039 21 174 8.0 9.7 0.00 0.00 0.00 40 1016.9
20260508055038 21 220 6.4 11.3 0.00 0.00 0.00 40 1017.0
20260508054117 21 167 1.6 4.8 0.00 0.00 0.00 39 1016.8
20260508053036 21 180 4.8 8.0 0.00 0.00 0.00 38 1016.9
20260508052034 20 182 4.8 11.3 0.00 0.00 0.00 39 1016.8
20260508051033 21 161 9.7 12.9 0.00 0.00 0.00 38 1016.8
20260508050032 21 178 12.9 19.3 0.00 0.00 0.00 38 1016.8
20260508045030 21 238 4.8 6.4 0.00 0.00 0.00 37 1016.8
20260508044029 20 230 3.2 4.8 0.00 0.00 0.00 39 1016.6